Simultaneous Nadir Overpasses (SNOs) Predictions

Prediction of SNOs between METOP-B and TERRA Satellite Orbit:

Table of predicted SNOs for the next 14.0 days since TLE Epoch: 8/20/2022
Index Date (METOP-B) Time (METOP-B) Lat,Lon (METOP-B) SZA (METOP-B ) Date (TERRA) Time (TERRA) Lat,Lon (TERRA) SZA (TERRA ) Distance(km) Time Diff (sec)
1 08/20/2022 15:36:53 -81.13, 165.32 109.19 08/20/2022 15:37:33 -81.13, 165.39 109.17 1.21 40
2 08/20/2022 16:27:32 81.16, -26.65 70.91 08/20/2022 16:26:58 81.16, -26.55 70.91 1.85 34
3 08/23/2022 11:11:13 -81.13,-128.38 108.25 08/23/2022 11:11:43 -81.13,-128.24 108.22 2.53 30
4 08/23/2022 12:01:52 81.15, 39.63 71.85 08/23/2022 12:01:08 81.15, 39.79 71.85 2.78 44
5 08/26/2022 06:45:33 -81.14, -61.74 107.24 08/26/2022 06:45:53 -81.14, -61.59 107.21 2.64 20
6 08/26/2022 07:36:12 81.16, 106.26 72.86 08/26/2022 07:35:18 81.17, 106.41 72.86 2.64 54
7 08/29/2022 02:19:53 -81.14, 4.87 106.21 08/29/2022 02:20:03 -81.15, 4.96 106.19 1.77 10
8 08/29/2022 03:10:32 81.16, 172.86 73.89 08/29/2022 03:09:28 81.17, 172.93 73.87 1.51 64
9 08/31/2022 21:03:33 81.12, -96.58 74.74 08/31/2022 21:04:46 81.12, -96.63 74.77 0.79 73
10 08/31/2022 21:54:12 -81.15, 71.45 105.16 08/31/2022 21:54:12 -81.15, 71.42 105.16 0.61 0



Historial Predications of SNOs between METOP-B and TERRA
